Location: Beutels
(47.8767°N, 9.8584°E)
Time: 06:04:03
(UTC+00:00)

Cosmos 2322 Rocket - Pass Details

Date: 19 May 2025
Orbit: 832 x 850 km, 71.0° (Epoch: 14 June)

Event Time Altitude Azimuth Distance (km) Brightness Sun altitude
Rises 22:50:12 0° 333° (NNW) 3,416 6.6 -21.9°
Reaches altitude 10° 22:52:40 10° 334° (NNW) 2,474 5.6 -21.9°
Maximum altitude 22:58:22 78° 62° (ENE) 863 2.2 -22.0°
Enters shadow 23:00:20 42° 141° (SE) 1,180 2.5 -22.0°
